{"data":{"norad_id":68777,"intl_designator":"2026-086M","name":"STARLINK-37400","alt_names":[],"object_type":"PAYLOAD","status":"ACTIVE","operator":null,"country":"US","launch_date":"2026-04-19","launch_site_code":"AFWTR","launch_vehicle":null,"mission":null,"orbit_class":"UNKNOWN","rcs_meters":null,"size_class":null,"mass_kg":null,"dimensions":null,"purposes":["comms"],"wikipedia_slug":null,"has_3d_model":false,"image_url":null,"decayed_at":null,"tle_current":{"epoch":"2026-05-25T04:00:03.998880Z","epoch_age_seconds":61441,"freshness":"FRESH","line1":"1 68777U 26086M   26145.16671295 -.01888010  00000+0 -25688-1 0  9999","line2":"2 68777  97.2846 182.0118 0001271  97.7881 220.0663 15.60747925  6073","mean_motion":15.60747925,"eccentricity":0.0001271,"inclination_deg":97.2846,"raan_deg":182.0118,"arg_perigee_deg":97.7881,"mean_anomaly_deg":220.0663,"bstar":-0.025688,"rev_number":607,"period_min":92.263457598382,"perigee_km":384.63576255175,"apogee_km":386.35507791298,"semimajor_km":6763.6324202324,"source":"CELESTRAK","updated_at":"2026-05-25T13:38:22.036411Z"}}}